{"data":{"norad_id":60063,"intl_designator":"2024-113E","name":"STARLINK-11165 [DTC]","alt_names":[],"object_type":"PAYLOAD","status":"ACTIVE","operator":null,"country":"US","launch_date":"2024-06-19","launch_site_code":"AFWTR","launch_vehicle":null,"mission":null,"orbit_class":"UNKNOWN","rcs_meters":null,"size_class":null,"mass_kg":null,"dimensions":null,"purposes":["comms"],"wikipedia_slug":null,"has_3d_model":false,"image_url":null,"decayed_at":null,"tle_current":{"epoch":"2026-05-24T12:39:04.416480Z","epoch_age_seconds":109132,"freshness":"FRESH","line1":"1 60063U 24113E   26144.52713445 -.00001088  00000+0 -41284-5 0  9996","line2":"2 60063  53.1584 177.2642 0000971  71.2587 288.8537 15.69707481111472","mean_motion":15.69707481,"eccentricity":9.71e-5,"inclination_deg":53.1584,"raan_deg":177.2642,"arg_perigee_deg":71.2587,"mean_anomaly_deg":288.8537,"bstar":-4.1284e-6,"rev_number":11147,"period_min":91.736837431814,"perigee_km":359.0797115731,"apogee_km":360.3882061133,"semimajor_km":6737.8709588432,"source":"CELESTRAK","updated_at":"2026-05-25T13:38:19.157165Z"}}}